#timestamp,LO_Frequency,Hit,StdDev 
1637406015.5,286046997.5,P
1637406035.3,286046996.7,P
1637406055.2,286046996.6,Y
1637406105.0,286047000.4,E
1637406115.9,286047000.3,N
1637406135.7,286046998.1,P
1637406155.5,286047000.7,N
1637406175.4,286047000.5,N
1637406195.2,286046999.9,N
1637406215.0,286047000.1,N
1637406215.9,286047000.1,N
1637406235.8,286047000.3,N
1637406255.6,286046999.9,N
1637406275.5,286047000.9,N
1637406295.3,286047000.7,N
1637406315.1,286047000.4,N
1637406335.9,286046999.9,N
1637406355.7,286047004.4,Y
1637406375.6,286047000.3,P
1637406395.4,286047002.8,P
1637406415.2,286047002.3,N
1637406435.1,286047000.2,N
1637406436.0,286047000.2,N
1637406455.8,286047000.1,N
1637406475.6,286047000.2,N
1637406495.5,286046999.7,N
1637406515.3,286047000.2,N
1637406535.2,286047000.2,N
1637406555.9,286047000.2,N
1637406575.7,286046999.9,N
1637406595.6,286047000.8,N
1637406615.4,286047001.0,N
1637406635.2,286047000.8,N
1637406655.1,286046998.3,N
1637406656.0,286046998.3,N
1637406675.8,286046998.3,N
1637406695.7,286047001.1,N
1637406715.5,286047000.6,N
1637406735.3,286047000.7,N
1637406755.2,286046999.5,N
1637406775.9,286046999.0,N
1637406795.7,286046999.1,N
1637406815.6,286046998.7,N
1637406835.4,286046998.2,N
1637406855.3,286046999.3,N
1637406875.1,286047001.0,N
1637406876.0,286047001.0,N
1637406895.8,286046998.7,N
1637406915.7,286046999.6,N
1637406935.5,286046996.6,Y
1637406955.3,286046999.5,P
1637406975.2,286046997.2,P
1637406995.0,286046997.4,N
1637406995.9,286046997.4,N
1637407015.8,286046997.8,N
1637407035.6,286046996.7,Y
1637407055.4,286046998.5,P
1637407075.3,286047002.3,P
1637407095.1,286047002.5,N
1637407115.8,286047000.4,N
1637407135.7,286046999.9,N
1637407155.5,286047000.9,N
1637407175.4,286047000.5,N
1637407195.2,286047000.2,N
1637407215.0,286047002.3,N
1637407215.9,286047002.3,N
1637407235.8,286047000.5,N
1637407255.6,286047000.6,N
1637407275.4,286047001.2,N
1637407295.3,286046998.6,N
1637407315.1,286046998.4,N
1637407335.9,286046998.2,N
1637407355.7,286047002.4,N
1637407375.5,286047002.8,N
1637407395.4,286047002.8,N
1637407415.2,286047001.0,N
1637407435.0,286046998.1,N
1637407435.9,286046998.1,N
1637407455.8,286046998.4,N
1637407475.6,286046998.9,N
1637407495.5,286046998.2,N
1637407515.3,286047000.7,N
1637407535.1,286047002.3,N
1637407555.9,286047000.6,N
1637407575.7,286046998.3,N
1637407595.5,286047000.7,N
1637407615.4,286046999.9,N
1637407635.2,286047000.0,N
1637407655.1,286047000.5,N
1637407656.0,286047000.5,N
1637407675.8,286047001.0,N
1637407695.6,286047002.4,N
1637407715.5,286046999.8,N
1637407735.3,286047002.0,N
1637407755.2,286047001.9,N
1637407775.9,286047001.9,N
1637407795.7,286047002.5,N
1637407815.6,286047004.2,N
1637407835.4,286047002.5,N
1637407855.2,286047002.2,N
1637407875.1,286046999.8,N
1637407876.0,286046999.8,N
1637407895.8,286046999.9,N
1637407915.7,286047000.5,N
1637407935.5,286047002.8,N
1637407955.3,286047000.8,N
1637407975.2,286047000.3,N
1637407995.0,286047000.7,N
1637407995.9,286047000.7,N
1637408015.7,286047000.6,N
1637408035.6,286047002.6,N
1637408055.4,286047002.7,N
1637408075.3,286047003.9,Y
1637408095.1,286047001.3,P
1637408115.8,286047002.4,P
1637408135.7,286047002.3,P
1637408155.5,286046998.6,N
1637408175.4,286047000.6,N
1637408195.2,286047000.5,N
1637408215.0,286047000.1,N
1637408215.9,286047000.1,N
1637408235.8,286047002.8,N
1637408255.6,286047001.6,N
1637408275.4,286047004.2,Y
1637408295.3,286047002.2,P
1637408315.1,286047002.6,P
1637408335.9,286047002.2,P
1637408355.7,286047002.4,Y
1637408375.5,286046999.0,P
1637408395.4,286046997.0,N
1637408415.2,286046996.9,N
1637408435.0,286046998.8,N
1637408435.9,286046998.8,N
1637408455.8,286046996.7,N
1637408475.6,286046999.6,N
1637408495.5,286046999.3,N
1637408515.3,286047001.0,N
1637408535.1,286046998.6,N
1637408555.9,286046998.2,N
1637408575.7,286047000.7,N
1637408595.6,286047002.8,N
1637408615.4,286047002.0,N
1637408635.2,286047002.6,N
1637408655.1,286047002.3,N
1637408656.0,286047002.3,N
1637408675.8,286047002.3,N
1637408695.7,286046999.7,N
1637408715.5,286047000.0,N
1637408735.3,286046999.9,N
1637408755.2,286047000.2,N
1637408775.0,286047011.9,Y
1637408775.9,286047000.2,P
1637408795.8,286047000.6,P
1637408815.6,286047002.7,P
1637408835.4,286047000.7,N
1637408855.3,286046999.9,N
1637408875.1,286047001.0,N
1637408895.8,286047000.2,N
1637408915.7,286047002.6,Y
1637408935.5,286047000.8,P
1637408955.4,286047000.5,P
1637408975.2,286046998.3,P
1637408995.0,286046998.1,N
1637408995.9,286046998.1,N
1637409015.8,286046999.4,N
1637409035.6,286046998.3,N
1637409055.4,286046998.5,N
1637409075.3,286046998.2,N
1637409095.1,286046998.3,N
1637409115.9,286046999.2,N
1637409135.7,286046999.2,N
1637409155.5,286046998.2,N
1637409175.4,286046998.7,N
1637409195.2,286047005.1,Y
1637409215.1,286047008.3,P
1637409216.0,286047008.3,N
1637409235.8,286047004.7,N
1637409255.7,286047004.6,N
1637409275.5,286047003.5,N
1637409295.4,286047004.4,N
1637409315.2,286047001.5,N
1637409335.0,286047011.4,Y
1637409335.9,286047011.4,P
1637409355.8,286047009.9,N
1637409375.6,286047010.1,P
1637409395.5,286047008.9,Y
1637409415.3,286046997.0,P
1637409435.1,286046995.6,N
1637409455.9,286046996.4,N
1637409475.7,286046993.7,N
1637409495.6,286046994.0,N
1637409515.4,286046991.7,N
1637409535.2,286046991.9,N
1637409555.1,286046992.8,N
1637409556.0,286046992.8,N
1637409575.8,286046992.9,N
1637409595.7,286046991.0,N
